DIAMOND BLUE

Last updated on Tue Apr 16 2024 00:03:32 GMT+0000 (Coordinated Universal Time)

1 42786U 17036X 24106.30007442 .05054678 23133-5 12769-2 0 9996 2 42786 97.0854 146.7730 0009019 228.7182 131.3336 16.28888926380086
UTC large
Height (km)
Speed (km/s)
/
Latitude / Longitude
Inclination (degrees)
Orbital Period (minutes)
Azimuth
Elevation
Range (km)
Doppler Factor

Next 0 passes for location: London (51.5072 / 0.1276)

Sorry there are no passes over London.